OpenBCM V1.08-5-g2f4a (Linux)

Packet Radio Mailbox

IZ3LSV

[San Dona' di P. JN]

 Login: GUEST





  
I0OJJ  > KEPS     05.06.25 01:44l 357 Lines 16944 Bytes #32 (0) @ AMSAT
BID : ORB25156.1
Read: GUEST
Subj: 2Line Orbital Elements 25156.AMSAT
Path: IZ3LSV<IK6IHL<IK7NXU<HB9ON<DK0WUE<PD0LPM<PI8ZTM<IR0AAB<I0OJJ<I0OJJ
Sent: 250605/0025z @:I0OJJ.ITA.EU [Rome] obcm1.08-10-g596e

>From i0ojj%i0ojj.ita.eu@i0ojj.ampr.org Thu Jun  5 02:25:07 2025
Received: from i0ojj.ampr.org by i0ojj.ampr.org (JNOS2.0p.8) with SMTP
	id AA17032792 ; Thu, 05 Jun 2025 02:25:07 +0200
Message-Id: <ORB25156.1@i0ojj.bbs>
>From: i0ojj@i0ojj.ita.eu
X-JNOS-User-Port: Telnet   (i0ojj @ 44.134.109.10)  -> Sending message

From: I0OJJ @ I0OJJ.ITA.EU (Gustavo)
To:   KEPS @ AMSAT
X-Info: This message was generated automatically


QST de W1STR

AMSAT Orbital Elements for Amateur Satellites in TLE Format
>From Orbital Analysis Office
New England Sci-Tech STEM Education Center
Natick, MA June 05, 2025
To all radio amateurs


These element sets describe the orbits of various satellites 
in use by the amateur radio community. For details see:
www.amsat.org/keplerian-elements-formats/

A daily update of element sets is available at:
www.amsat.org/tle/daily-bulletin.txt
or without bulletin text:
www.amsat.org/tle/dailytle.txt


AO-07
1 07530U 74089B   25155.85570128 -.00000037  00000-0  59409-4 0  9999
2 07530 101.9928 160.0696 0012550 130.0136 281.3326 12.53689368313476
UO-11
1 14781U 84021B   25155.42796242  .00001432  00000-0  15654-3 0  9994
2 14781  97.7540 121.8984 0007874   5.9645 354.1665 14.89374753200871
AO-27
1 22825U 93061C   25155.11283260  .00000130  00000-0  66695-4 0  9999
2 22825  98.7368 216.6412 0009386 125.0600 235.1464 14.30797755652932
FO-29
1 24278U 96046B   25155.57685492  .00000007  00000-0  44441-4 0  9990
2 24278  98.5768  50.1263 0349922 355.7672   4.0529 13.53248907422098
NOAA-15
1 25338U 98030A   25155.83309200  .00000254  00000-0  12214-3 0  9998
2 25338  98.5349 181.0787 0010545  20.4469 339.7132 14.26977108407726
GO-32
1 25397U 98043D   25155.49346482  .00000100  00000-0  63323-4 0  9990
2 25397  98.9699 134.5066 0000923 167.6398 192.4803 14.24314076397566
ISS
1 25544U 98067A   25155.84069791  .00010040  00000-0  18362-3 0  9990
2 25544  51.6371   8.2584 0001754 191.9244 279.0812 15.50007040513245
NO-44
1 26931U 01043C   25155.40658157  .00000192  00000-0  10282-3 0  9991
2 26931  67.0489 141.2156 0006019 275.5159  84.5256 14.31732021236361
SO-50
1 27607U 02058C   25155.55789705  .00001279  00000-0  17664-3 0  9997
2 27607  64.5521 216.0372 0055796 335.1827  24.6596 14.81613563208481
CO-55
1 27844U 03031E   25155.76124945  .00000383  00000-0  18596-3 0  9994
2 27844  98.6754 164.0972 0009255 194.2289 165.8630 14.23993339137984
CO-57
1 27848U 03031J   25155.00442650  .00000352  00000-0  17464-3 0  9990
2 27848  98.6783 163.3601 0008760 214.8558 145.2048 14.23327963137573
RS-22
1 27939U 03042A   25155.85391676  .00001406  00000-0  23046-3 0  9991
2 27939  98.3278 325.1915 0012013  31.0728  75.9292 14.72345767160134
NOAA-18
1 28654U 05018A   25155.80902517  .00000231  00000-0  14539-3 0  9990
2 28654  98.8423 235.3389 0015045 140.1191 220.1090 14.13609066 33079
CO-58
1 28895U 05043F   25155.34858120  .00001582  00000-0  26593-3 0  9997
2 28895  98.2490 299.6337 0013628 328.0287  32.0091 14.71000473 46175
CO-65
1 32785U 08021C   25155.55020560  .00004421  00000-0  32105-3 0  9992
2 32785  97.7828 126.6763 0008626 223.2228 136.8321 15.04382219928325
CO-66
1 32791U 08021J   25155.43252492  .00010650  00000-0  51781-3 0  9999
2 32791  97.7270 135.3591 0004191 156.6512 203.4912 15.18603433929795
RS-30
1 32953U 08025A   25155.81471100  .00000004  00000-0 -44132-4 0  9990
2 32953  82.5035 230.1400 0020207  59.2188 301.0878 12.43164866772948
NOAA-19
1 33591U 09005A   25155.81471227  .00000219  00000-0  14048-3 0  9997
2 33591  98.9973 220.4925 0014000  22.0367 338.1404 14.13372080841439
SRMSAT
1 37841U 11058D   25155.43021579  .00000417  00000-0  82923-4 0  9997
2 37841  19.9700 185.7134 0011815   9.2988  24.0950 14.11434490704385
ZACUBE-1
1 39417U 13066B   25155.43818506  .00004226  00000-0  36825-3 0  9994
2 39417  97.7800 112.4781 0046273  70.1297 290.4902 14.96606650624145
Delfi-N3xt
1 39428U 13066N   25155.31751647  .00006259  00000-0  63794-3 0  9998
2 39428  97.8351  73.0260 0085714  19.1831 341.2580 14.88312586618292
GOMX-1
1 39430U 13066Q   25155.78157078  .00002119  00000-0  33526-3 0  9991
2 39430  97.6845  14.7410 0131729 207.2470 152.1784 14.67621571614708
LO-74
1 39440U 13066AA  25155.57344317  .00003075  00000-0  31443-3 0  9991
2 39440  97.8487 100.1684 0061526 195.2069 164.7302 14.89905083620690
AO-73
1 39444U 13066AE  25155.61816538  .00007094  00000-0  53093-3 0  9999
2 39444  97.7834 117.5127 0044023  46.3129 314.1730 15.02270868622846
DTUSAT-2
1 40030U 14033W   25155.44802658  .00005071  00000-0  33182-3 0  9996
2 40030  98.0549 127.0186 0011186  79.8000 280.4488 15.08201934595624
EO-80
1 40032U 14033Y   25155.46861106  .00007128  00000-0  46364-3 0  9994
2 40032  98.0425 126.7020 0009306  28.1753 331.9976 15.08285310595607
LILACSAT-2
1 40908U 15049K   25155.86269117  .00012037  00000-0  31518-3 0  9992
2 40908  97.5061 176.0955 0009821 166.1469 194.0047 15.38818273537508
IO-86
1 40931U 15052B   25151.18580175  .00001241  00000-0  78118-4 0  9996
2 40931   6.0006  24.0987 0012733 338.8432  21.1169 14.78805930523047
Horyu-4
1 41340U 16012D   25155.41154274  .00013272  00000-0  35542-3 0  9995
2 41340  30.9953 166.6912 0006064 358.7907   1.2723 15.36685424511993
Lapan A3
1 41603U 16040E   25155.85653838  .00003558  00000-0  12555-3 0  9991
2 41603  97.1368 160.6497 0009112 289.6285  70.3973 15.29831258497065
CAS-2T
1 41847U 16066G   25155.20573959  .00001536  00000-0  22731-3 0  9994
2 41847  98.4196 229.7156 0345969 194.5647 164.5376 14.43460856450245
CAS-4B
1 42759U 17034B   25155.86689765  .00072053  00000-0  76703-3 0  9998
2 42759  43.0079 349.9623 0021471 259.9153  99.9290 15.62795342441862
CAS-4A
1 42761U 17034D   25155.83995459  .00076189  00000-0  77092-3 0  9994
2 42761  43.0118 347.3301 0022768 263.7620  96.0651 15.64022450441882
TechnoSat
1 42829U 17042E   25155.51307285  .00002471  00000-0  19416-3 0  9996
2 42829  97.3910 324.4714 0012898 294.9710  65.0175 15.01694408429963
AO-91
1 43017U 17073E   25155.60553108  .00006750  00000-0  34754-3 0  9993
2 43017  97.5243  26.5050 0172759 183.1159 176.9008 15.04633028408469
S-Net D
1 43186U 18014G   25155.73329390  .00004675  00000-0  27751-3 0  9997
2 43186  97.5635  58.6887 0007497 235.7048 124.3473 15.11790812401641
S-Net B
1 43187U 18014H   25155.60624520  .00004935  00000-0  29289-3 0  9994
2 43187  97.5638  58.5345 0008340 231.6672 128.3809 15.11768967401620
S-Net A
1 43188U 18014J   25155.60131491  .00005022  00000-0  29774-3 0  9992
2 43188  97.5647  58.6790 0008156 232.1035 127.9458 15.11793899401627
S-Net C
1 43189U 18014K   25155.47624435  .00005307  00000-0  31461-3 0  9995
2 43189  97.5661  58.5686 0009875 225.3542 134.6884 15.11762916400154
Ten-Koh
1 43677U 18084G   25155.46126704  .00002296  00000-0  18707-3 0  9991
2 43677  98.0874 327.5149 0005078 281.5372  78.5280 15.00556692359471
PO-101
1 43678U 18084H   25155.84711102  .00002832  00000-0  24314-3 0  9993
2 43678  98.1053 331.7908 0006659 313.4537  46.6130 14.98327489359674
QO-100
1 43700U 18090A   25155.58796900  .00000151  00000-0  00000-0 0  9991
2 43700   0.0171 356.6491 0002101 110.3755  23.6878  1.00271751 23895
MinXSS-2
1 43758U 18099A   25155.14864481  .00010723  00000-0  42426-3 0  9992
2 43758  97.5018 221.1668 0012667 168.3630 191.7903 15.25566483356148
AO-95
1 43770U 18099N   25155.57034356  .00008226  00000-0  41727-3 0  9991
2 43770  97.4917 213.7113 0009762 221.8413 138.2075 15.17153991355790
RANGE-A
1 43773U 18099R   25155.69382842  .00004504  00000-0  28807-3 0  9992
2 43773  97.4481 204.2374 0010885 201.0373 159.0409 15.09046945355485
MOVE-II
1 43780U 18099Y   25155.76619606  .00239900  00000-0  16123-2 0  9996
2 43780  97.4652 231.0272 0006251 191.6719 168.4401 15.74471270357043
SNUSat 2
1 43782U 18099AA  25155.65151642  .00006371  00000-0  34838-3 0  9995
2 43782  97.4597 210.5834 0012783 164.0805 196.0831 15.14550023355754
SnugLite
1 43784U 18099AC  25155.14015673  .00011848  00000-0  59408-3 0  9999
2 43784  97.4415 209.6311 0004406 151.2146 208.9331 15.17483143355819
ITASat 1
1 43786U 18099AE  25155.38687598  .00004253  00000-0  24499-3 0  9992
2 43786  97.4566 209.8494 0013455 218.3954 141.6320 15.12870182355671
EAGLET 1
1 43790U 18099AJ  25155.64354100  .00004211  00000-0  26980-3 0  9997
2 43790  97.4761 210.0734 0011656 199.4968 160.5816 15.09014175355329
ESEO
1 43792U 18099AL  25155.67374535  .00002385  00000-0  18320-3 0  9995
2 43792  97.4490 203.4288 0013093 175.0101 185.1258 15.02605488355088
CSIM
1 43793U 18099AM  25155.75025455  .00191398  00000-0  13629-2 0  9998
2 43793  97.4808 233.2670 0005918 176.8493 183.2809 15.73254821356887
JO-97
1 43803U 18099AX  25155.64965088  .00010400  00000-0  47509-3 0  9992
2 43803  97.4666 214.7703 0008532 153.2573 206.9103 15.20732816356028
Suomi 100
1 43804U 18099AY  25155.12892622  .00007635  00000-0  37478-3 0  9999
2 43804  97.4728 213.5663 0013273 160.4397 199.7349 15.18291655355873
ISAT
1 43879U 18111D   25155.26205440  .00012027  00000-0  41974-3 0  9994
2 43879  97.5961  69.5375 0007714 202.6020 157.4881 15.29732066352887
UWE-4
1 43880U 18111E   25155.68743900  .00012395  00000-0  48703-3 0  9995
2 43880  97.5906  68.4851 0010478 220.0422 140.0045 15.25785342350885
Sparrow
1 43881U 18111F   25155.50974961  .00017680  00000-0  59273-3 0  9996
2 43881  97.6103  72.6488 0004703 248.3190 111.7550 15.30964404353016
Prox-1
1 44339U 19036A   25155.49341705  .00009084  00000-0  11434-2 0  9999
2 44339  23.9964  95.2046 0007020  16.7894 343.2835 14.79869287317266
SONATE
1 44400U 19038Q   25155.80524149  .00304973  37308-4  91805-3 0  9991
2 44400  97.6881 182.1832 0006021 211.4752 148.6161 15.92192552328819
